Showing default

COSMOS 2426 (GLONASS), 29671

Orbit data source: Space-Track

COSMOS 2426 (GLONASS), 29671 is a Commonwealth of Independent States-origin payload satellite in MEO that was launched on Mon, 25 Dec 2006 UTC via a PROTON-K/DM-2 launch vehicle from the Tyuratam Missile And Space Complex (TTMTR). Payloads include a variety of satellites, spacecraft, and rockets equipped with specific instruments for various scientific and technological missions. These include communications satellites like Starlink; space stations such as the ISS; scientific satellites like the Hubble; Earth observation satellites from companies like Planet Labs, Umbra, and HawkEye 360; GPS; miniature CubeSats for education and research; and military/defense satellites.

Loading next visibility...
COSMOS 2426 (GLONASS) details
Identifier
29671, 2006-062B
Orbit
MEO
Last TLE update22 hours ago
Origin
Flag of CISKVR/IACG (CIS)
ManufacturerResehetnev ISS
MissionNon-operational Defense Navigation
Bus & MotorURAGAN, Unknown motor
Mass1,450 kg wet, ~1,200 kg dry
Launch date (UTC)
2006-12-25 (18 years ago)
Launch vehicle
PROTON-K/DM-2
Launch site
Tyuratam Missile And Space Complex (TTMTR)
Object type
Payload
Rocket body
Debris
Shape & HBRCyl + 1 Arm + 2 Pan, 7.8 m
Radar Cross Section8.145 m², Large (>1 m²)

Expand to show TLE details & history

TLE from 22 hours ago
0 COSMOS 2426 (GLONASS)
1 29671U 06062B   24360.54151698  .00000103  00000-0  00000-0 0  9997
2 29671  64.6979 212.4453 0021395 177.7293 191.0754  2.12963414140087
Epoch: 2024-12-25T12:59Z
Definitive object data (Epoch: 2024-12-25T12:59:47.067Z)
Latitude7.85315°
Longitude-73.29547°
Altitude19,194.491 km
Speed3.944 km/s
True Right ascension14h 24m 44s
True Declination7° 50' 25"
Sunlit
Object was in daylight at TLE epoch
Visualization TLE readout
Latitude-13.50334°
Longitude-83.57145°
Altitude19,197.628 km
Speed3.944 km/s
Apparent Right ascension14h 24m 23s
Apparent Declination-24° 12' 09"
Sunlit
Object is in daylight
Visualization observer readout
Local Sidereal Time10:08:49
Azimuth124.929° SE
Elevation2.568°
Doppler factor1
Orbital elements
Apogee altitude19,195.175 km
Perigee altitude19,085.981 km
Semi-major axis25,518.715 km
Eccentricity0.0021395
Inclination64.6979°
RAAN212.4453°
Arg. of periapsis177.7293°
True anomaly191.02843°
Mean anomaly191.0754°
Eccentric anomaly191.0519°
Mean motion0.53242 °/min
BSTARUnknown
Orbital period676.16 mins
Loading maneuver chart data...
Loading historical data...
Loading historical data...
Loading historical data...
Loading historical data...
Loading historical data...
Loading historical data...
Loading historical data...

COSMOS 2426 (GLONASS) Visibility forecast

Observer location: undefined°, undefined

Span
Click to sort rows by Start time (UTC) header in descending order
Start Az.
Max El. time (UTC)
Max El. Az.
Max El.
End time (UTC)
End Az.
195 mins2024-12-26 11:07:34.452Z118.487° SE2024-12-26 12:47:34.452Z66.995° ENE31.096°2024-12-26 14:22:34.452Z26.183° NE
261 mins2024-12-27 00:35:34.452Z322.603° NNW2024-12-27 02:48:34.452Z272.659° WNW42.552°2024-12-27 04:56:34.452Z201.917° SSW
19 mins2024-12-27 10:28:34.452Z84.824° E2024-12-27 10:47:34.452Z76.312° E14.95°2024-12-27 10:47:34.452Z76.312° E
|